Lampedusa Island, Italy

8:04 AM CET on January 18, 2017 (GMT +0100)
Lampedusa

Weather History for LICD - November, 2012

Change the Weather History Date:

Sunday, November 18, 2012

  Actual Average Record
Temperature  
Mean Temperature 64 °F -  
Max Temperature 69 °F 64 °F 75 °F (2005)
Min Temperature 60 °F 58 °F 44 °F (2013)
Growing Degree Days 14 (Base 50)    
Moisture  
Dew Point 59 °F    
Average Humidity 82    
Maximum Humidity 94    
Minimum Humidity 68    
Precipitation  
Precipitation 0.00 in 0.07 in - ()
Sea Level Pressure  
Sea Level Pressure 29.88 in    
Wind  
Wind Speed 12 mph ()    
Max Wind Speed 22 mph    
Max Gust Speed 34 mph    
Visibility 5.5 miles    
Events Rain , Thunderstorm    
Averages and records for this station are not official NWS values.
T = Trace of Precipitation, MM = Missing Value Source: Averaged Metar Reports

Daily Weather History Graph

Daily Weather History Graph

Search for Another Location

Airport or City:

Trip Planner

Search our weather history database for the weather conditions in past years. The results will help you decide how hot, cold, wet, or windy it might be!

Date:

Astronomy

Nov. 18, 2012 Rise Set
Actual Time 6:48 AM CET 5:01 PM CET
Civil Twilight 6:20 AM CET 5:28 PM CET
Nautical Twilight 5:50 AM CET 5:59 PM CET
Astronomical Twilight 5:19 AM CET 6:29 PM CET
Moon 11:05 AM CET 9:58 PM CET
Length of Visible Light 11h 07m
Length of Day
10h 12m
Waxing Crescent, 27% of the Moon is Illuminated
Nov 18
Waxing Crescent
Nov 20
First Quarter
Nov 28
Full
Dec 6
Last Quarter
Dec 13
New

Hourly Weather History & Observations

Time (CET) Temp. Dew Point Humidity Pressure Visibility Wind Dir Wind Speed Gust Speed Precip Events Conditions
6:01 AM 64.4 °F 60.8 °F 88% 29.92 in 6.2 mi SSE 18.4 mph - N/A Rain Light Rain
6:09 AM 64.4 °F 60.8 °F 88% 29.89 in 6.2 mi SSE 17.3 mph - N/A Rain Light Rain
6:50 AM 64.4 °F 59.0 °F 83% 29.89 in 5.0 mi South 12.7 mph - N/A Rain , Thunderstorm Rain
7:50 AM 64.4 °F 59.0 °F 83% 29.92 in 4.3 mi SSE 10.4 mph - N/A Rain Heavy Rain
8:50 AM 64.4 °F 57.2 °F 77% 29.92 in 6.2 mi ESE 15.0 mph - N/A   Drizzle
9:50 AM 66.2 °F 59.0 °F 78% 29.89 in 6.2 mi East 12.7 mph - N/A Thunderstorm Heavy Drizzle
10:07 AM 60.8 °F 57.2 °F 88% 29.92 in 1.2 mi NW 21.9 mph 34.5 mph N/A Rain , Thunderstorm Heavy Thunderstorms and Rain
10:25 AM 60.8 °F 59.0 °F 94% 29.92 in 6.2 mi North 12.7 mph 26.5 mph N/A   Drizzle
10:50 AM 60.8 °F 59.0 °F 94% 29.92 in 6.2 mi NNE 12.7 mph - N/A   Drizzle
11:50 AM 66.2 °F 57.2 °F 73% 29.89 in 6.2 mi SSW 11.5 mph - N/A   Mostly Cloudy
12:50 PM 68.0 °F 59.0 °F 73% 29.89 in 6.2 mi South 13.8 mph - N/A   Light Drizzle
1:50 PM 68.0 °F 59.0 °F 73% 29.86 in 6.2 mi West 12.7 mph - N/A   Mostly Cloudy
2:50 PM 62.6 °F 60.8 °F 94% 29.86 in 6.2 mi North 10.4 mph - N/A   Mostly Cloudy
3:50 PM 64.4 °F 60.8 °F 88% 29.86 in 1.9 mi ENE 2.3 mph - N/A Rain Heavy Rain
4:21 PM 62.6 °F 59.0 °F 88% 29.86 in 6.2 mi North 3.5 mph - N/A   Mostly Cloudy
4:50 PM 64.4 °F 60.8 °F 88% 29.86 in 6.2 mi NE 6.9 mph - N/A   Mostly Cloudy
5:50 PM 66.2 °F 59.0 °F 78% 29.83 in 6.2 mi SW 6.9 mph - N/A   Mostly Cloudy
6:50 PM 69.8 °F 59.0 °F 68% 29.86 in 6.2 mi SW 12.7 mph - N/A   Mostly Cloudy
7:50 PM 68.0 °F 59.0 °F 73% 29.86 in 6.2 mi SSW 15.0 mph - N/A Rain Rain
8:19 PM 68.0 °F 57.2 °F 68% 29.86 in 6.2 mi SSW 19.6 mph - N/A Thunderstorm Mostly Cloudy
8:50 PM 66.2 °F 59.0 °F 78% 29.89 in 6.2 mi West 11.5 mph - N/A Thunderstorm Mostly Cloudy
9:21 PM 64.4 °F 57.2 °F 77% 29.86 in 3.7 mi SW 18.4 mph 33.4 mph N/A Rain , Thunderstorm Rain
9:50 PM 62.6 °F 57.2 °F 82% 29.86 in 5.0 mi SSW 8.1 mph - N/A Rain , Thunderstorm Rain
10:50 PM 66.2 °F 60.8 °F 83% 29.86 in 6.2 mi South 12.7 mph - N/A Rain , Thunderstorm Rain